Zurück zum Katalog

ATLAS 5 CENTAUR R/B

AktivMEO
NORAD 46919·ROCKET BODY·🇺🇸 United States

Gestartet Nov 13, 2020 von Cape Canaveral Space Force Station

Loading…

Nächste Überflüge (nächste 24 Stunden)

TLE

AktuellSource: Space-Track

Epoche: Sep 14, 2026, 12:29 UTC

1 46919U 20083B   26257.52033782 -.00000033  00000-0  00000-0 0  9991
2 46919  58.8905 307.5730 0134297 232.3097 126.5285  3.86388231 48938

Verfolge ATLAS 5 CENTAUR R/B in Echtzeit mit AllMySat

Download on the App Store